Weather History for Fairbanks, AK

Change the Weather History Date:

Thursday, January 17, 2013

  Actual Average Record
Temperature  
Mean Temperature -2 °F -9 °F  
Max Temperature 14 °F 0 °F 48 °F (2009)
Min Temperature -19 °F -18 °F -57 °F (1947)
Degree Days  
Heating Degree Days 67 74  
Month to date heating degree days 994 1242  
Since 1 July heating degree days 8018 7514  
Cooling Degree Days 0 0  
Month to date cooling degree days 0 0  
Year to date cooling degree days 0 0  
Moisture  
Dew Point -4 °F    
Average Humidity 73    
Maximum Humidity 87    
Minimum Humidity 52    
Precipitation  
Precipitation 0.02 in 0.02 in 0.33 in (2000)
Month to date precipitation 0.50 0.34  
Year to date precipitation 0.50 0.34  
Snow  
Snow 0.40 in 0.40 in 4.00 in (2008)
Month to date snowfall 5.4 6.1  
Since 1 July snowfall 35.3 44.0  
Snow Depth 16.00 in    
Sea Level Pressure  
Sea Level Pressure 29.97 in    
Wind  
Wind Speed 4 mph (NNW)    
Max Wind Speed 13 mph    
Max Gust Speed -    
Visibility 8 miles    
Events Snow    
T = Trace of Precipitation, MM = Missing Value Source: NWS Daily Summary

Daily Weather History Graph

Daily Weather History Graph

Search for Another Location

Airport:

Trip Planner

Search our weather history database for the weather conditions in past years. The results will help you decide how hot, cold, wet, or windy it might be!

Date:

Astronomy

Jan. 17, 2013 Rise Set
Actual Time 10:20 AM AKST 3:43 PM AKST
Civil Twilight 9:11 AM AKST 4:52 PM AKST
Nautical Twilight 8:06 AM AKST 5:58 PM AKST
Astronomical Twilight 7:07 AM AKST 6:57 PM AKST
Moon 10:35 AM AKST (1/17) 12:31 AM AKST (1/17)
Length of Visible Light 7h 41m
Length of Day
5h 23m
Waxing Crescent, 39% of the Moon is Illuminated
Jan 17
Waxing Crescent
Jan 18
First Quarter
Jan 26
Full
Feb 3
Last Quarter
Feb 9
New

Hourly Weather History & Observations

Time (AKST) Temp. Windchill Dew Point Humidity Pressure Visibility Wind Dir Wind Speed Gust Speed Precip Events Conditions
12:53 AM 8.1 °F - 3.9 °F 83% 29.87 in 5.0 mi Calm Calm - N/A Snow Light Snow
1:53 AM 8.1 °F - 5.0 °F 87% 29.86 in 2.0 mi Calm Calm - N/A Snow Light Snow
2:28 AM 8.6 °F - 5.0 °F 85% 29.81 in 2.0 mi Calm Calm - N/A Snow Light Snow
3:53 AM 9.0 °F - 5.0 °F 84% 29.85 in 2.0 mi Calm Calm - N/A Snow Light Snow
4:53 AM 9.0 °F - 5.0 °F 84% 29.84 in 2.0 mi Calm Calm - N/A Snow Light Snow
5:53 AM 12.9 °F 2.6 °F 9.0 °F 84% 29.84 in 2.0 mi North 6.9 mph - N/A Snow Light Snow
6:53 AM 12.9 °F 0.7 °F 7.0 °F 77% 29.84 in 2.0 mi North 9.2 mph - N/A Snow Light Snow
7:39 AM 12.2 °F -0.2 °F 6.8 °F 79% 29.81 in 8.0 mi North 9.2 mph - N/A Snow Light Snow
7:53 AM 12.0 °F -1.3 °F 5.0 °F 73% 29.86 in 10.0 mi North 10.4 mph - N/A Snow Light Snow
8:53 AM 10.0 °F -3.7 °F 1.9 °F 70% 29.87 in 10.0 mi NNW 10.4 mph - N/A   Mostly Cloudy
9:53 AM 8.1 °F -7.0 °F -0.9 °F 67% 29.89 in 10.0 mi North 11.5 mph - N/A   Scattered Clouds
10:53 AM 6.1 °F -8.7 °F -2.9 °F 67% 29.91 in 10.0 mi North 10.4 mph - N/A   Scattered Clouds
11:53 AM 5.0 °F -10.0 °F -4.0 °F 66% 29.92 in 10.0 mi North 10.4 mph - N/A   Scattered Clouds
12:53 PM 3.9 °F -10.4 °F -5.1 °F 66% 29.94 in 10.0 mi North 9.2 mph - N/A   Scattered Clouds
1:53 PM 3.9 °F -11.3 °F -6.0 °F 64% 29.97 in 10.0 mi North 10.4 mph - N/A   Scattered Clouds
2:31 PM 3.2 °F -11.3 °F -5.8 °F 66% 29.94 in 10.0 mi NNW 9.2 mph - N/A   Mostly Cloudy
2:53 PM 1.9 °F -15.5 °F -7.1 °F 66% 30.00 in 10.0 mi North 12.7 mph - N/A   Mostly Cloudy
3:53 PM 1.0 °F -14.0 °F -8.0 °F 66% 30.02 in 10.0 mi North 9.2 mph - N/A   Mostly Cloudy
4:53 PM -0.9 °F -19.1 °F -9.9 °F 66% 30.04 in 10.0 mi North 12.7 mph - N/A   Mostly Cloudy
5:53 PM -2.9 °F -11.2 °F -11.9 °F 65% 30.06 in 10.0 mi NW 3.5 mph - N/A   Scattered Clouds
6:53 PM -2.9 °F -11.2 °F -11.9 °F 65% 30.09 in 10.0 mi NNW 3.5 mph - N/A   Scattered Clouds
7:53 PM -9.9 °F -21.5 °F -14.1 °F 82% 30.12 in 10.0 mi SSW 4.6 mph - N/A   Scattered Clouds
8:53 PM -9.9 °F - -14.1 °F 82% 30.14 in 10.0 mi Calm Calm - N/A   Mostly Cloudy
9:53 PM -11.0 °F - -16.1 °F 78% 30.17 in 10.0 mi Calm Calm - N/A   Mostly Cloudy
10:53 PM -15.0 °F - -20.0 °F 78% 30.20 in 10.0 mi Calm Calm - N/A   Scattered Clouds
11:53 PM -18.9 °F - -24.0 °F 78% 30.23 in 10.0 mi Calm Calm - N/A   Scattered Clouds